When you browse on this site, cookies collect data to enhance your experience and personalize the content and advertising you see.
Visit our Privacy Policy to learn more. By continuing to use the site, you agree to this use of cookies and data.
  • In Switzerland
  • List of Countries
  • For 7 days
  • Water Temperature
  • Satellite Maps
  • Weather Map
  • Weather Widgets
  • user-avatar
    Login

    Hourly Weather Tomakivs'ke

    Today, 22 April, Monday

    Time Temperature Precipitation Wind Pressure Humidity
    00:00 +10°C° 0 mm 3 mps 759 mmHg 49%
    01:00 +9°C° 0 mm 3 mps 759 mmHg 51%
    02:00 +9°C° 0 mm 3 mps 759 mmHg 52%
    03:00 +8°C° 0 mm 3 mps 759 mmHg 54%
    04:00 +8°C° 0 mm 3 mps 759 mmHg 56%
    05:00 +7°C° 0 mm 3 mps 759 mmHg 59%
    06:00 +8°C° 0 mm 4 mps 760 mmHg 53%
    07:00 +10°C° 0 mm 4 mps 760 mmHg 48%
    08:00 +12°C° 0 mm 5 mps 760 mmHg 42%
    09:00 +13°C° 0 mm 5 mps 760 mmHg 39%
    10:00 +14°C° 0 mm 6 mps 760 mmHg 36%
    11:00 +15°C° 0 mm 6 mps 760 mmHg 33%
    12:00 +15°C° 0 mm 5 mps 760 mmHg 33%
    13:00 +16°C° 0 mm 5 mps 760 mmHg 32%
    14:00 +16°C° 0 mm 5 mps 760 mmHg 32%
    15:00 +16°C° 0 mm 5 mps 760 mmHg 35%
    16:00 +15°C° 0 mm 4 mps 760 mmHg 37%
    17:00 +15°C° 0 mm 4 mps 760 mmHg 40%
    18:00 +13°C° 0 mm 3 mps 760 mmHg 43%
    19:00 +12°C° 0 mm 3 mps 760 mmHg 46%
    20:00 +12°C° 0 mm 2 mps 761 mmHg 49%
    21:00 +11°C° 0 mm 3 mps 761 mmHg 50%
    22:00 +11°C° 0 mm 3 mps 761 mmHg 50%
    23:00 +11°C° 0 mm 3 mps 761 mmHg 50%

    Tomorrow, 23 April, Tuesday

    Time Temperature Precipitation Wind Pressure Humidity
    00:00 +11°C° 0 mm 3 mps 762 mmHg 53%
    01:00 +10°C° 0 mm 2 mps 762 mmHg 55%
    02:00 +10°C° 0 mm 2 mps 762 mmHg 57%
    03:00 +10°C° 0 mm 2 mps 762 mmHg 57%
    04:00 +10°C° 0 mm 2 mps 762 mmHg 58%
    05:00 +10°C° 0 mm 2 mps 762 mmHg 58%
    06:00 +12°C° 0 mm 2 mps 763 mmHg 54%
    07:00 +13°C° 0 mm 2 mps 763 mmHg 50%
    08:00 +14°C° 0 mm 3 mps 763 mmHg 45%
    09:00 +16°C° 0 mm 3 mps 763 mmHg 41%
    10:00 +17°C° 0 mm 3 mps 763 mmHg 36%
    11:00 +18°C° 0 mm 4 mps 764 mmHg 31%
    12:00 +18°C° 0 mm 3 mps 763 mmHg 31%
    13:00 +18°C° 0 mm 3 mps 763 mmHg 31%
    14:00 +18°C° 0 mm 3 mps 763 mmHg 30%
    15:00 +18°C° 0 mm 2 mps 763 mmHg 32%
    16:00 +18°C° 0 mm 2 mps 763 mmHg 33%
    17:00 +17°C° 0 mm 2 mps 763 mmHg 34%
    18:00 +16°C° 0 mm 2 mps 763 mmHg 38%
    19:00 +15°C° 0 mm 2 mps 763 mmHg 41%
    20:00 +13°C° 0 mm 1 mps 763 mmHg 44%
    21:00 +13°C° 0 mm 1 mps 763 mmHg 46%
    22:00 +12°C° 0 mm 1 mps 764 mmHg 48%
    23:00 +12°C° 0 mm 1 mps 764 mmHg 50%

    Day after tomorrow, 24 April, Wednesday

    Time Temperature Precipitation Wind Pressure Humidity
    00:00 +12°C° 0 mm 1 mps 764 mmHg 52%
    01:00 +11°C° 0 mm 1 mps 764 mmHg 54%
    02:00 +10°C° 0 mm 0 mps 764 mmHg 56%
    03:00 +9°C° 0 mm 0 mps 764 mmHg 57%
    04:00 +10°C° 0 mm 1 mps 764 mmHg 59%
    05:00 +10°C° 0 mm 1 mps 764 mmHg 60%
    06:00 +12°C° 0 mm 1 mps 764 mmHg 55%
    07:00 +14°C° 0 mm 2 mps 764 mmHg 50%
    08:00 +16°C° 0 mm 2 mps 764 mmHg 45%
    09:00 +17°C° 0 mm 2 mps 764 mmHg 41%
    10:00 +18°C° 0 mm 3 mps 764 mmHg 37%
    11:00 +19°C° 0 mm 3 mps 764 mmHg 34%
    12:00 +19°C° 0 mm 3 mps 764 mmHg 33%
    13:00 +19°C° 0 mm 2 mps 764 mmHg 33%
    14:00 +19°C° 0 mm 2 mps 764 mmHg 33%
    15:00 +20°C° 0 mm 1 mps 763 mmHg 33%
    16:00 +20°C° 0 mm 1 mps 763 mmHg 34%
    17:00 +20°C° 0 mm 1 mps 763 mmHg 35%
    18:00 +18°C° 0 mm 1 mps 763 mmHg 39%
    19:00 +16°C° 0 mm 1 mps 763 mmHg 43%
    20:00 +14°C° 0 mm 1 mps 763 mmHg 47%
    21:00 +14°C° 0 mm 1 mps 763 mmHg 48%
    22:00 +13°C° 0 mm 1 mps 764 mmHg 49%
    23:00 +13°C° 0 mm 1 mps 764 mmHg 50%

    25 April, Thursday

    Time Temperature Precipitation Wind Pressure Humidity
    00:00 +13°C° 0 mm 1 mps 764 mmHg 52%
    01:00 +12°C° 0 mm 2 mps 764 mmHg 54%
    02:00 +12°C° 0 mm 2 mps 764 mmHg 55%
    03:00 +10°C° 0 mm 2 mps 764 mmHg 57%
    04:00 +10°C° 0 mm 2 mps 764 mmHg 58%
    05:00 +10°C° 0 mm 2 mps 764 mmHg 60%
    06:00 +13°C° 0 mm 2 mps 764 mmHg 56%
    07:00 +15°C° 0 mm 2 mps 764 mmHg 53%
    08:00 +17°C° 0 mm 3 mps 764 mmHg 49%
    09:00 +19°C° 0 mm 3 mps 764 mmHg 46%
    10:00 +20°C° 0 mm 2 mps 764 mmHg 42%
    11:00 +21°C° 0 mm 2 mps 764 mmHg 39%
    12:00 +23°C° 0 mm 2 mps 763 mmHg 38%
    13:00 +23°C° 0 mm 2 mps 763 mmHg 37%
    14:00 +24°C° 0 mm 1 mps 762 mmHg 36%
    15:00 +23°C° 0 mm 1 mps 762 mmHg 39%
    16:00 +23°C° 0 mm 1 mps 762 mmHg 41%
    17:00 +21°C° 0 mm 0 mps 762 mmHg 44%
    18:00 +20°C° 0 mm 0 mps 762 mmHg 46%
    19:00 +18°C° 0 mm 0 mps 762 mmHg 48%
    20:00 +17°C° 0 mm 0 mps 762 mmHg 51%
    21:00 +19°C° 0 mm 1 mps 761 mmHg 52%
    22:00 +18°C° 0 mm 1 mps 761 mmHg 54%
    23:00 +16°C° 0 mm 1 mps 761 mmHg 56%

    26 April, Friday

    Time Temperature Precipitation Wind Pressure Humidity
    00:00 +16°C° 0 mm 1 mps 761 mmHg 57%
    01:00 +15°C° 0 mm 1 mps 761 mmHg 59%
    02:00 +15°C° 0 mm 2 mps 761 mmHg 60%
    03:00 +15°C° 0 mm 2 mps 761 mmHg 62%
    04:00 +14°C° 0 mm 2 mps 760 mmHg 64%
    05:00 +14°C° 0 mm 2 mps 760 mmHg 66%
    06:00 +16°C° 0 mm 2 mps 760 mmHg 61%
    07:00 +18°C° 0 mm 2 mps 760 mmHg 57%
    08:00 +20°C° 0 mm 2 mps 760 mmHg 52%
    09:00 +21°C° 0 mm 2 mps 760 mmHg 47%
    10:00 +23°C° 0 mm 2 mps 760 mmHg 42%
    11:00 +25°C° 0 mm 3 mps 759 mmHg 37%
    12:00 +25°C° 0 mm 2 mps 759 mmHg 37%
    13:00 +24°C° 0 mm 2 mps 759 mmHg 37%
    14:00 +24°C° 0 mm 2 mps 758 mmHg 37%
    15:00 +24°C° 0 mm 2 mps 758 mmHg 40%
    16:00 +24°C° 0 mm 1 mps 758 mmHg 42%
    17:00 +23°C° 0 mm 1 mps 758 mmHg 45%
    18:00 +22°C° 0 mm 1 mps 758 mmHg 47%
    19:00 +21°C° 0 mm 1 mps 758 mmHg 49%
    20:00 +19°C° 0 mm 1 mps 758 mmHg 51%
    21:00 +19°C° 0 mm 1 mps 757 mmHg 52%
    22:00 +18°C° 0 mm 1 mps 757 mmHg 53%
    23:00 +18°C° 0 mm 1 mps 757 mmHg 54%

    27 April, Saturday

    Time Temperature Precipitation Wind Pressure Humidity
    00:00 +16°C° 0 mm 1 mps 757 mmHg 57%
    01:00 +16°C° 0 mm 1 mps 757 mmHg 59%
    02:00 +15°C° 0 mm 1 mps 757 mmHg 62%
    03:00 +15°C° 0 mm 1 mps 757 mmHg 61%
    04:00 +15°C° 0 mm 0 mps 757 mmHg 61%
    05:00 +15°C° 0 mm 0 mps 757 mmHg 60%
    06:00 +15°C° 0 mm 0 mps 757 mmHg 60%
    07:00 +16°C° 0 mm 0 mps 757 mmHg 59%
    08:00 +17°C° 0 mm 0 mps 757 mmHg 58%
    09:00 +18°C° 0 mm 0 mps 757 mmHg 53%
    10:00 +19°C° 0 mm 0 mps 757 mmHg 49%
    11:00 +22°C° 0 mm 1 mps 757 mmHg 44%
    12:00 +23°C° 0 mm 1 mps 757 mmHg 42%
    13:00 +23°C° 0 mm 2 mps 756 mmHg 40%
    14:00 +23°C° 0 mm 2 mps 756 mmHg 39%
    15:00 +23°C° 0 mm 2 mps 756 mmHg 40%
    16:00 +23°C° 0 mm 2 mps 756 mmHg 42%
    17:00 +23°C° 0 mm 2 mps 756 mmHg 44%
    18:00 +22°C° 0 mm 1 mps 756 mmHg 46%
    19:00 +21°C° 0 mm 1 mps 756 mmHg 48%
    20:00 +20°C° 0 mm 1 mps 756 mmHg 50%
    21:00 +19°C° 0 mm 1 mps 756 mmHg 52%
    22:00 +19°C° 0 mm 1 mps 756 mmHg 54%
    23:00 +18°C° 0 mm 1 mps 756 mmHg 56%
    Show more